Chicago Executive, IL

8:41 PM CST on December 09, 2019 (GMT -0600)
Chicago Executive

Weather History for KPWK - October, 2019

Change the Weather History Date:

Saturday, October 5, 2019

  Actual Average Record
Temperature  
Mean Temperature 58 °F 56 °F  
Max Temperature 66 °F 66 °F 89 °F (1997)
Min Temperature 50 °F 46 °F 33 °F (2004)
Degree Days  
Heating Degree Days 7 10  
Month to date heating degree days 26 45  
Since 1 July heating degree days 33 157  
Cooling Degree Days 0 1  
Month to date cooling degree days 13 5  
Year to date cooling degree days 996 783  
Growing Degree Days 8 (Base 50)    
Moisture  
Dew Point 48 °F    
Average Humidity 73    
Maximum Humidity 84    
Minimum Humidity 56    
Precipitation  
Precipitation 0.21 in 0.09 in 1.31 in (2013)
Month to date precipitation 1.48 0.58  
Year to date precipitation 38.17 26.27  
Sea Level Pressure  
Sea Level Pressure 30.10 in    
Wind  
Wind Speed 7 mph ()    
Max Wind Speed 16 mph    
Max Gust Speed 23 mph    
Visibility 9.6 miles    
Events Rain    
T = Trace of Precipitation, MM = Missing Value Source: Averaged Metar Reports

Daily Weather History Graph

Daily Weather History Graph

Search for Another Location

Airport or City:

Astronomy

Oct. 05, 2019 Rise Set
Actual Time 6:52 AM CDT 6:26 PM CDT
Civil Twilight 6:24 AM CDT 6:54 PM CDT
Nautical Twilight 5:52 AM CDT 7:26 PM CDT
Astronomical Twilight 5:19 AM CDT 7:59 PM CDT
Moon 2:23 PM CDT (10/5) 11:43 PM CDT (10/5)
Length of Visible Light 12h 29m
Length of Day
11h 33m
Waxing Crescent, 50% of the Moon is Illuminated
Oct 5
Waxing Crescent
Oct 13
Full
Oct 21
Last Quarter
Oct 27
New
Nov 4
First Quarter

Hourly Weather History & Observations

Time (CDT) Temp. Dew Point Humidity Pressure Visibility Wind Dir Wind Speed Gust Speed Precip Events Conditions
12:52 AM 55.0 °F 43.0 °F 64% 30.30 in 10.0 mi ESE 6.9 mph - N/A   Overcast
1:52 AM 54.0 °F 44.1 °F 69% 30.29 in 10.0 mi ESE 6.9 mph - N/A   Mostly Cloudy
2:14 AM 54.0 °F 45.0 °F 72% 30.28 in 10.0 mi ESE 8.1 mph - N/A   Mostly Cloudy
2:37 AM 54.0 °F 46.0 °F 75% 30.27 in 10.0 mi ESE 5.8 mph - N/A   Scattered Clouds
2:52 AM 53.1 °F 46.0 °F 77% 30.27 in 10.0 mi ESE 5.8 mph - N/A   Clear
3:52 AM 52.0 °F 46.0 °F 80% 30.26 in 10.0 mi ESE 6.9 mph - N/A   Clear
4:52 AM 52.0 °F 46.0 °F 80% 30.25 in 10.0 mi SE 4.6 mph - N/A   Clear
5:52 AM 51.1 °F 46.0 °F 83% 30.25 in 10.0 mi SSE 3.5 mph - N/A   Clear
6:52 AM 52.0 °F 46.0 °F 80% 30.23 in 10.0 mi ESE 4.6 mph - N/A   Clear
7:52 AM 52.0 °F 46.0 °F 80% 30.22 in 10.0 mi SE 4.6 mph - N/A   Clear
8:52 AM 54.0 °F 45.0 °F 72% 30.17 in 10.0 mi SE 10.4 mph - N/A   Clear
9:52 AM 57.0 °F 45.0 °F 64% 30.15 in 10.0 mi SSE 11.5 mph - N/A   Clear
10:52 AM 59.0 °F 46.0 °F 62% 30.12 in 10.0 mi SSE 11.5 mph - N/A   Clear
11:52 AM 61.0 °F 46.0 °F 58% 30.09 in 10.0 mi SSE 11.5 mph - N/A   Clear
12:52 PM 62.1 °F 46.9 °F 58% 30.07 in 10.0 mi South 10.4 mph - N/A   Clear
1:52 PM 64.0 °F 48.0 °F 56% 30.01 in 10.0 mi SSE 11.5 mph 20.7 mph N/A   Partly Cloudy
2:52 PM 64.9 °F 48.9 °F 56% 29.98 in 10.0 mi South 11.5 mph - N/A   Partly Cloudy
3:52 PM 64.0 °F 48.0 °F 56% 30.03 in 10.0 mi WSW 4.6 mph - N/A   Overcast
4:52 PM 60.1 °F 51.1 °F 72% 30.01 in 3.0 mi East 4.6 mph - 0.04 in Rain Rain
5:52 PM 59.0 °F 54.0 °F 83% 29.96 in 6.0 mi SE 9.2 mph - 0.11 in Rain Light Rain
6:52 PM 57.9 °F 53.1 °F 84% 29.93 in 10.0 mi SSE 12.7 mph - 0.06 in   Partly Cloudy
7:52 PM 59.0 °F 53.1 °F 81% 29.91 in 10.0 mi SSE 15.0 mph 23.0 mph N/A   Mostly Cloudy
8:52 PM 57.9 °F 53.1 °F 84% 29.89 in 10.0 mi South 12.7 mph - N/A   Mostly Cloudy
9:52 PM 59.0 °F 54.0 °F 83% 29.91 in 10.0 mi SSW 6.9 mph - 0.00 in   Overcast
10:48 PM 60.8 °F 53.6 °F 77% 29.93 in 10.0 mi SSW 9.2 mph - N/A   Overcast
10:52 PM 60.1 °F 54.0 °F 80% 29.93 in 10.0 mi SSW 9.2 mph - N/A   Overcast
11:52 PM 60.1 °F 54.0 °F 80% 29.92 in 10.0 mi SW 8.1 mph - N/A   Overcast